TRA79N EHAM-LEIB

Flight info

Callsign TRA79N
Flight time 2h 25m
Altitude 35000
Route LOPIK N852 LNO DCT SUTAL DCT GTQ DCT POGOL DCT LASAT DCT MOROK DCT GILIR DCT GEVEA DCT INCUS DCT BALSI DCT RETNO DCT TUPOX DCT MTG DCT DIVKO DCT VATIR N852 PIVUS Z237 SULID DCT DIMIB DCT POS
Aircraft A21N/M-SDE2E3FGHIJ1RWXY/LB1

Departure

Time 2026-05-07 10:08
Airport Amsterdam Airport Schiphol (EHAM)

Arrival

Time 2026-05-07 12:33
Airport Ibiza Airport (LEIB)
Time Latitude Longitude Altitude Speed Heading
2026-05-07 08:53 52.30506 4.76806 4 ft 0 kts 314°
2026-05-07 09:54 52.30498 4.76820 4 ft 4 kts 314°
2026-05-07 09:54 52.30479 4.76852 4 ft 4 kts 314°
2026-05-07 09:54 52.30461 4.76883 4 ft 3 kts 312°
2026-05-07 09:54 52.30449 4.76909 4 ft 4 kts 279°
2026-05-07 09:55 52.30453 4.76936 4 ft 2 kts 231°
2026-05-07 09:55 52.30469 4.76963 4 ft 4 kts 201°
2026-05-07 09:55 52.30489 4.76973 4 ft 4 kts 182°
2026-05-07 09:55 52.30513 4.76964 4 ft 4 kts 147°
2026-05-07 09:56 52.30531 4.76944 4 ft 0 kts 148°
2026-05-07 09:59 52.30530 4.76945 4 ft 1 kts 148°
2026-05-07 09:59 52.30517 4.76958 4 ft 3 kts 148°
2026-05-07 10:00 52.30488 4.76973 4 ft 6 kts 183°
2026-05-07 10:00 52.30450 4.76926 4 ft 8 kts 237°
2026-05-07 10:00 52.30413 4.76832 4 ft 11 kts 238°
2026-05-07 10:00 52.30368 4.76712 4 ft 14 kts 238°
2026-05-07 10:01 52.30312 4.76568 4 ft 16 kts 237°
2026-05-07 10:01 52.30249 4.76403 4 ft 18 kts 238°
2026-05-07 10:01 52.30177 4.76216 4 ft 20 kts 237°
2026-05-07 10:01 52.30099 4.76010 4 ft 22 kts 238°
2026-05-07 10:02 52.30016 4.75796 4 ft 23 kts 238°
2026-05-07 10:02 52.29933 4.75579 4 ft 19 kts 238°
2026-05-07 10:02 52.29866 4.75406 4 ft 17 kts 237°
2026-05-07 10:02 52.29833 4.75231 4 ft 17 kts 288°
2026-05-07 10:03 52.29908 4.75072 5 ft 18 kts 311°
2026-05-07 10:03 52.29995 4.74910 5 ft 20 kts 311°
2026-05-07 10:03 52.30088 4.74738 8 ft 21 kts 311°
2026-05-07 10:03 52.30191 4.74549 15 ft 23 kts 311°
2026-05-07 10:04 52.30293 4.74357 13 ft 21 kts 310°
2026-05-07 10:04 52.30362 4.74225 5 ft 11 kts 304°
2026-05-07 10:04 52.30369 4.74202 5 ft 0 kts 286°
2026-05-07 10:04 52.30370 4.74197 5 ft 2 kts 293°
2026-05-07 10:05 52.30384 4.74173 4 ft 4 kts 314°
2026-05-07 10:05 52.30411 4.74128 4 ft 7 kts 314°
2026-05-07 10:05 52.30422 4.74045 4 ft 9 kts 249°
2026-05-07 10:05 52.30407 4.73949 4 ft 9 kts 272°
2026-05-07 10:06 52.30407 4.73942 4 ft 0 kts 273°
2026-05-07 10:06 52.30407 4.73934 4 ft 2 kts 273°
2026-05-07 10:07 52.30410 4.73862 3 ft 14 kts 274°
2026-05-07 10:07 52.30471 4.73761 3 ft 14 kts
2026-05-07 10:07 52.30579 4.73772 2 ft 19 kts
2026-05-07 10:07 52.30855 4.73798 4 ft 75 kts
2026-05-07 10:08 52.31674 4.73872 4 ft 157 kts
2026-05-07 10:08 52.32857 4.73968 577 ft 173 kts
2026-05-07 10:08 52.34063 4.74367 1480 ft 183 kts 22°
2026-05-07 10:08 52.35285 4.75240 2331 ft 201 kts 24°
2026-05-07 10:09 52.36501 4.76475 2966 ft 215 kts 45°
2026-05-07 10:09 52.37296 4.78632 3591 ft 230 kts 75°
2026-05-07 10:09 52.37292 4.81272 4389 ft 239 kts 103°
2026-05-07 10:09 52.36505 4.83673 5219 ft 244 kts 134°
2026-05-07 10:10 52.35064 4.85141 5888 ft 257 kts 165°
2026-05-07 10:10 52.33229 4.85367 6526 ft 268 kts 182°
2026-05-07 10:10 52.31352 4.85191 7308 ft 272 kts 184°
2026-05-07 10:10 52.29451 4.85039 8135 ft 276 kts 182°
2026-05-07 10:11 52.27543 4.84936 8967 ft 280 kts 181°
2026-05-07 10:11 52.25601 4.85335 9795 ft 285 kts 161°
2026-05-07 10:11 52.23721 4.86527 10413 ft 297 kts 162°
2026-05-07 10:11 52.21678 4.87578 10757 ft 318 kts 163°
2026-05-07 10:12 52.19496 4.88668 11151 ft 336 kts 163°
2026-05-07 10:12 52.17241 4.89818 11846 ft 342 kts 163°
2026-05-07 10:12 52.14933 4.91015 12640 ft 345 kts 163°
2026-05-07 10:12 52.12635 4.92221 13410 ft 349 kts 163°
2026-05-07 10:13 52.10333 4.93435 14126 ft 353 kts 163°
2026-05-07 10:13 52.07985 4.94675 14806 ft 357 kts 163°
2026-05-07 10:13 52.05613 4.95927 15491 ft 360 kts 163°
2026-05-07 10:13 52.03216 4.97192 16167 ft 364 kts 163°
2026-05-07 10:14 52.00800 4.98465 16836 ft 367 kts 163°
2026-05-07 10:14 51.98354 4.99751 17505 ft 371 kts 163°
2026-05-07 10:14 51.95884 5.01048 18147 ft 374 kts 163°
2026-05-07 10:14 51.93401 5.02354 18733 ft 378 kts 163°
2026-05-07 10:15 51.90893 5.03672 19296 ft 381 kts 163°
2026-05-07 10:15 51.88360 5.05009 19849 ft 384 kts 163°
2026-05-07 10:15 51.85808 5.06346 20388 ft 387 kts 163°
2026-05-07 10:15 51.83237 5.07689 20914 ft 390 kts 163°
2026-05-07 10:16 51.80647 5.09039 21452 ft 393 kts 163°
2026-05-07 10:16 51.78033 5.10400 21984 ft 395 kts 163°
2026-05-07 10:16 51.75404 5.11766 22504 ft 398 kts 163°
2026-05-07 10:16 51.72787 5.13132 23014 ft 402 kts 163°
2026-05-07 10:17 51.70080 5.14538 23535 ft 405 kts 163°
2026-05-07 10:17 51.67430 5.15911 23967 ft 408 kts 163°
2026-05-07 10:17 51.64716 5.17320 24408 ft 410 kts 163°
2026-05-07 10:17 51.61991 5.18731 24839 ft 413 kts 163°
2026-05-07 10:18 51.59252 5.20148 25273 ft 415 kts 163°
2026-05-07 10:18 51.56497 5.21580 25670 ft 417 kts 163°
2026-05-07 10:18 51.53717 5.23021 26085 ft 420 kts 163°
2026-05-07 10:18 51.50925 5.24459 26490 ft 422 kts 163°
2026-05-07 10:19 51.48127 5.25893 26882 ft 425 kts 163°
2026-05-07 10:19 51.45302 5.27340 27256 ft 427 kts 163°
2026-05-07 10:19 51.42463 5.28798 27617 ft 430 kts 163°
2026-05-07 10:19 51.39605 5.30264 27968 ft 432 kts 163°
2026-05-07 10:20 51.36727 5.31736 28321 ft 435 kts 163°
2026-05-07 10:20 51.33840 5.33214 28676 ft 437 kts 163°
2026-05-07 10:20 51.30931 5.34699 29020 ft 439 kts 163°
2026-05-07 10:20 51.28016 5.36188 29354 ft 442 kts 163°
2026-05-07 10:21 51.25073 5.37692 29687 ft 444 kts 163°
2026-05-07 10:21 51.22115 5.39189 30026 ft 446 kts 163°
2026-05-07 10:21 51.19148 5.40686 30309 ft 448 kts 163°
2026-05-07 10:21 51.16203 5.42181 30583 ft 450 kts 163°
2026-05-07 10:22 51.13210 5.43698 30856 ft 452 kts 163°
2026-05-07 10:22 51.10165 5.45241 31123 ft 454 kts 163°
2026-05-07 10:22 51.07159 5.46767 31468 ft 453 kts 163°
2026-05-07 10:22 51.04165 5.48282 31822 ft 452 kts 163°
2026-05-07 10:23 51.01205 5.49770 32164 ft 451 kts 163°
2026-05-07 10:23 50.98211 5.51274 32505 ft 450 kts 163°
2026-05-07 10:23 50.95226 5.52771 32841 ft 449 kts 163°
2026-05-07 10:23 50.92244 5.54261 33163 ft 448 kts 163°
2026-05-07 10:24 50.89272 5.55755 33472 ft 448 kts 163°
2026-05-07 10:24 50.86308 5.57243 33756 ft 447 kts 163°
2026-05-07 10:24 50.83341 5.58724 34051 ft 446 kts 163°
2026-05-07 10:24 50.80386 5.60202 34270 ft 446 kts 163°
2026-05-07 10:25 50.77421 5.61679 34456 ft 446 kts 163°
2026-05-07 10:25 50.74458 5.63154 34623 ft 447 kts 163°
2026-05-07 10:25 50.71488 5.64631 34750 ft 449 kts 163°
2026-05-07 10:25 50.68501 5.66117 34891 ft 450 kts 163°
2026-05-07 10:26 50.65515 5.67597 35050 ft 450 kts 163°
2026-05-07 10:26 50.59563 5.70532 35074 ft 450 kts 162°
2026-05-07 10:27 50.53706 5.74034 35050 ft 450 kts 159°
2026-05-07 10:27 50.47875 5.77683 35040 ft 452 kts 159°
2026-05-07 10:28 50.42029 5.81316 35042 ft 452 kts 159°
2026-05-07 10:28 50.36181 5.84928 35043 ft 452 kts 159°
2026-05-07 10:29 50.30325 5.88545 35043 ft 451 kts 159°
2026-05-07 10:29 50.24482 5.92147 35033 ft 452 kts 159°
2026-05-07 10:30 50.15686 5.97539 35036 ft 453 kts 159°
2026-05-07 10:30 50.09819 6.01114 35037 ft 453 kts 159°
2026-05-07 10:31 50.03951 6.04697 35029 ft 452 kts 159°
2026-05-07 10:31 49.98139 6.08240 35037 ft 452 kts 159°
2026-05-07 10:32 49.92246 6.11817 35028 ft 452 kts 159°
2026-05-07 10:32 49.86416 6.15335 35045 ft 452 kts 159°
2026-05-07 10:33 49.80549 6.18870 35041 ft 452 kts 159°
2026-05-07 10:33 49.74685 6.22402 35049 ft 452 kts 160°
2026-05-07 10:34 49.68820 6.25921 35054 ft 452 kts 160°
2026-05-07 10:34 49.62989 6.29402 35048 ft 452 kts 160°
2026-05-07 10:35 49.57120 6.32897 35046 ft 452 kts 160°
2026-05-07 10:35 49.51244 6.36388 35051 ft 453 kts 160°
2026-05-07 10:36 49.45396 6.39971 35047 ft 453 kts 157°
2026-05-07 10:36 49.39627 6.43887 35042 ft 453 kts 157°
2026-05-07 10:37 49.33865 6.47819 35042 ft 453 kts 157°
2026-05-07 10:37 49.28094 6.51736 35034 ft 453 kts 157°
2026-05-07 10:38 49.22328 6.55637 35029 ft 453 kts 157°
2026-05-07 10:38 49.16552 6.59531 35030 ft 453 kts 157°
2026-05-07 10:39 49.11756 6.62768 35037 ft 453 kts 157°
2026-05-07 10:39 49.05047 6.67292 35041 ft 453 kts 158°
2026-05-07 10:40 49.00169 6.70412 35027 ft 453 kts 163°
2026-05-07 10:40 48.97147 6.71422 35043 ft 451 kts 175°
2026-05-07 10:40 48.93976 6.71552 35044 ft 449 kts 182°
2026-05-07 10:41 48.87777 6.71217 35030 ft 448 kts 184°
2026-05-07 10:41 48.81532 6.70919 35044 ft 448 kts 183°
2026-05-07 10:42 48.75290 6.70669 35041 ft 449 kts 183°
2026-05-07 10:42 48.69043 6.70426 35047 ft 449 kts 183°
2026-05-07 10:43 48.62798 6.70183 35046 ft 448 kts 183°
2026-05-07 10:43 48.56592 6.69950 35049 ft 448 kts 183°
2026-05-07 10:44 48.50355 6.69706 35048 ft 449 kts 183°
2026-05-07 10:44 48.44106 6.69470 35043 ft 448 kts 183°
2026-05-07 10:45 48.37861 6.69234 35051 ft 448 kts 183°
2026-05-07 10:45 48.31623 6.68992 35050 ft 448 kts 183°
2026-05-07 10:46 48.25382 6.68754 35052 ft 448 kts 183°
2026-05-07 10:46 48.19144 6.68517 35048 ft 448 kts 184°
2026-05-07 10:47 48.12948 6.68274 35050 ft 448 kts 184°
2026-05-07 10:47 48.06710 6.68037 35048 ft 448 kts 184°
2026-05-07 10:48 48.00464 6.67796 35051 ft 448 kts 184°
2026-05-07 10:48 47.94218 6.67568 35049 ft 448 kts 184°
2026-05-07 10:49 47.87978 6.67331 35047 ft 448 kts 184°
2026-05-07 10:49 47.81740 6.67095 35039 ft 449 kts 184°
2026-05-07 10:50 47.75501 6.66859 35051 ft 448 kts 184°
2026-05-07 10:50 47.69303 6.66622 35053 ft 448 kts 184°
2026-05-07 10:51 47.63061 6.66388 35053 ft 448 kts 184°
2026-05-07 10:51 47.56836 6.66163 35048 ft 447 kts 184°
2026-05-07 10:52 47.50616 6.65936 35053 ft 447 kts 184°
2026-05-07 10:52 47.44436 6.65681 35051 ft 446 kts 186°
2026-05-07 10:53 47.41377 6.65013 35050 ft 443 kts 197°
2026-05-07 10:53 47.38504 6.63453 35043 ft 438 kts 209°
2026-05-07 10:53 47.35959 6.61051 35051 ft 433 kts 220°
2026-05-07 10:53 47.33655 6.58187 35054 ft 433 kts 223°
2026-05-07 10:54 47.29124 6.52352 35052 ft 433 kts 223°
2026-05-07 10:54 47.24547 6.46590 35048 ft 433 kts 222°
2026-05-07 10:55 47.19954 6.40853 35034 ft 432 kts 223°
2026-05-07 10:55 47.15373 6.35151 35045 ft 431 kts 223°
2026-05-07 10:56 47.10799 6.29458 35039 ft 431 kts 223°
2026-05-07 10:56 47.05777 6.24622 35035 ft 437 kts 205°
2026-05-07 10:57 47.02843 6.23380 35031 ft 443 kts 192°
2026-05-07 10:57 46.99774 6.22872 35030 ft 444 kts 188°
2026-05-07 10:57 46.93656 6.22166 35032 ft 444 kts 188°
2026-05-07 10:58 46.87502 6.21371 35024 ft 444 kts 188°
2026-05-07 10:58 46.81350 6.20551 35025 ft 444 kts 188°
2026-05-07 10:59 46.75192 6.19735 35020 ft 444 kts 189°
2026-05-07 10:59 46.69045 6.18924 35024 ft 444 kts 189°
2026-05-07 11:00 46.62887 6.18109 35020 ft 444 kts 189°
2026-05-07 11:00 46.56734 6.17298 35019 ft 444 kts 189°
2026-05-07 11:01 46.50621 6.16494 35010 ft 444 kts 189°
2026-05-07 11:01 46.44468 6.15690 35005 ft 444 kts 189°
2026-05-07 11:02 46.38308 6.14894 35009 ft 444 kts 189°
2026-05-07 11:02 46.32160 6.14080 35022 ft 444 kts 189°
2026-05-07 11:03 46.26008 6.13263 35021 ft 443 kts 190°
2026-05-07 11:03 46.19926 6.11989 35015 ft 441 kts 193°
2026-05-07 11:04 46.13861 6.10629 35023 ft 441 kts 193°
2026-05-07 11:04 46.07793 6.09278 35016 ft 441 kts 193°
2026-05-07 11:05 46.01766 6.07946 35021 ft 441 kts 193°
2026-05-07 11:05 45.95698 6.06614 35017 ft 440 kts 193°
2026-05-07 11:06 45.89643 6.05289 35026 ft 440 kts 193°
2026-05-07 11:06 45.83579 6.03957 35022 ft 440 kts 193°
2026-05-07 11:07 45.77534 6.02615 35011 ft 438 kts 194°
2026-05-07 11:07 45.71500 6.01285 35010 ft 438 kts 194°
2026-05-07 11:08 45.65506 5.99964 35022 ft 438 kts 194°
2026-05-07 11:08 45.59477 5.98646 35011 ft 437 kts 194°
2026-05-07 11:09 45.53472 5.97329 35018 ft 436 kts 194°
2026-05-07 11:09 45.47490 5.95971 35012 ft 434 kts 196°
2026-05-07 11:10 45.41582 5.94157 34978 ft 431 kts 198°
2026-05-07 11:10 45.35776 5.92332 34997 ft 431 kts 198°
2026-05-07 11:11 45.29922 5.90504 34998 ft 431 kts 198°
2026-05-07 11:11 45.24062 5.88690 34992 ft 430 kts 198°
2026-05-07 11:12 45.18224 5.86869 34981 ft 429 kts 198°
2026-05-07 11:12 45.12390 5.85062 34980 ft 429 kts 198°
2026-05-07 11:13 45.06569 5.83258 34972 ft 428 kts 198°
2026-05-07 11:13 45.00795 5.81476 34965 ft 426 kts 198°
2026-05-07 11:14 44.95002 5.79692 34965 ft 425 kts 198°
2026-05-07 11:14 44.89212 5.77912 34961 ft 425 kts 198°
2026-05-07 11:15 44.83431 5.76133 34954 ft 424 kts 198°
2026-05-07 11:15 44.77703 5.74379 34962 ft 423 kts 198°
2026-05-07 11:16 44.71950 5.72626 34958 ft 422 kts 198°
2026-05-07 11:16 44.66191 5.70883 34965 ft 423 kts 198°
2026-05-07 11:17 44.60416 5.69131 34958 ft 425 kts 198°
2026-05-07 11:17 44.54645 5.67377 34957 ft 424 kts 198°
2026-05-07 11:18 44.48883 5.65635 34955 ft 424 kts 198°
2026-05-07 11:18 44.43103 5.63889 34959 ft 423 kts 198°
2026-05-07 11:19 44.37394 5.61991 34957 ft 418 kts 204°
2026-05-07 11:19 44.32015 5.59103 34958 ft 416 kts 207°
2026-05-07 11:20 44.26631 5.56122 34941 ft 415 kts 206°
2026-05-07 11:20 44.21253 5.53181 34957 ft 415 kts 206°
2026-05-07 11:21 44.15865 5.50239 34959 ft 414 kts 206°
2026-05-07 11:21 44.10500 5.47318 34962 ft 414 kts 206°
2026-05-07 11:22 44.05169 5.44422 34955 ft 413 kts 206°
2026-05-07 11:22 43.99819 5.41511 34957 ft 413 kts 206°
2026-05-07 11:23 43.94459 5.38613 34962 ft 413 kts 206°
2026-05-07 11:23 43.89103 5.35722 34949 ft 412 kts 206°
2026-05-07 11:24 43.83761 5.32834 34978 ft 411 kts 206°
2026-05-07 11:24 43.78422 5.29957 34982 ft 412 kts 206°
2026-05-07 11:25 43.73080 5.27081 34984 ft 412 kts 206°
2026-05-07 11:25 43.67772 5.24233 34983 ft 410 kts 205°
2026-05-07 11:26 43.62452 5.21381 34993 ft 410 kts 205°
2026-05-07 11:26 43.57129 5.18536 34987 ft 410 kts 205°
2026-05-07 11:27 43.51804 5.15692 34993 ft 410 kts 205°
2026-05-07 11:27 43.46524 5.12882 34990 ft 409 kts 205°
2026-05-07 11:28 43.41217 5.10056 34997 ft 409 kts 205°
2026-05-07 11:28 43.37007 5.07199 34993 ft 403 kts 216°
2026-05-07 11:29 43.32389 5.02842 34994 ft 403 kts 218°
2026-05-07 11:29 43.27789 4.98474 34988 ft 401 kts 217°
2026-05-07 11:30 43.23190 4.94145 35000 ft 402 kts 217°
2026-05-07 11:30 43.18575 4.89813 35003 ft 402 kts 217°
2026-05-07 11:31 43.13955 4.85485 35008 ft 402 kts 217°
2026-05-07 11:31 43.09337 4.81171 34998 ft 401 kts 217°
2026-05-07 11:32 43.02229 4.75097 35007 ft 403 kts 212°
2026-05-07 11:33 42.97315 4.71395 35011 ft 403 kts 212°
2026-05-07 11:33 42.92412 4.67687 35005 ft 403 kts 212°
2026-05-07 11:34 42.87546 4.64001 35008 ft 402 kts 212°
2026-05-07 11:34 42.82653 4.60304 35011 ft 402 kts 212°
2026-05-07 11:35 42.77777 4.56630 35026 ft 401 kts 212°
2026-05-07 11:35 42.72892 4.52957 35018 ft 401 kts 212°
2026-05-07 11:36 42.68004 4.49290 35014 ft 401 kts 212°
2026-05-07 11:36 42.63116 4.45627 35014 ft 401 kts 212°
2026-05-07 11:37 42.58228 4.41973 35020 ft 401 kts 212°
2026-05-07 11:37 42.53339 4.38324 35020 ft 401 kts 212°
2026-05-07 11:38 42.48473 4.34699 35012 ft 398 kts 212°
2026-05-07 11:38 42.43651 4.31109 35023 ft 398 kts 212°
2026-05-07 11:39 42.38795 4.27504 35024 ft 398 kts 212°
2026-05-07 11:39 42.33938 4.23901 35024 ft 398 kts 212°
2026-05-07 11:40 42.29090 4.20316 35021 ft 396 kts 212°
2026-05-07 11:40 42.24255 4.16745 35027 ft 395 kts 211°
2026-05-07 11:41 42.19423 4.13183 35027 ft 395 kts 211°
2026-05-07 11:41 42.14601 4.09626 35025 ft 395 kts 211°
2026-05-07 11:42 42.09772 4.06082 35017 ft 394 kts 211°
2026-05-07 11:42 42.04985 4.02570 35023 ft 393 kts 211°
2026-05-07 11:43 42.00177 3.99048 35024 ft 393 kts 211°
2026-05-07 11:43 41.95369 3.95535 35024 ft 393 kts 211°
2026-05-07 11:44 41.90525 3.92100 35014 ft 393 kts 210°
2026-05-07 11:44 41.85658 3.88826 35025 ft 391 kts 210°
2026-05-07 11:45 41.80789 3.85555 35024 ft 391 kts 210°
2026-05-07 11:45 41.75948 3.82298 35024 ft 391 kts 210°
2026-05-07 11:46 41.71070 3.79034 35016 ft 391 kts 210°
2026-05-07 11:46 41.66214 3.75792 35021 ft 389 kts 210°
2026-05-07 11:47 41.61358 3.72546 35020 ft 390 kts 210°
2026-05-07 11:47 41.56538 3.69337 35020 ft 389 kts 210°
2026-05-07 11:48 41.51696 3.66115 35024 ft 389 kts 210°
2026-05-07 11:48 41.46873 3.62900 35012 ft 385 kts 210°
2026-05-07 11:49 41.42067 3.59713 35020 ft 386 kts 210°
2026-05-07 11:49 41.37266 3.56533 35017 ft 386 kts 210°
2026-05-07 11:50 41.32459 3.53356 35016 ft 386 kts 210°
2026-05-07 11:50 41.27654 3.50191 35009 ft 384 kts 210°
2026-05-07 11:51 41.22866 3.47039 35012 ft 384 kts 210°
2026-05-07 11:51 41.17999 3.44104 35009 ft 388 kts 202°
2026-05-07 11:52 41.12723 3.42552 35011 ft 392 kts 196°
2026-05-07 11:52 41.07374 3.41177 34995 ft 391 kts 196°
2026-05-07 11:53 41.02062 3.39790 35012 ft 389 kts 197°
2026-05-07 11:53 40.96758 3.38395 35008 ft 389 kts 197°
2026-05-07 11:54 40.91449 3.36999 35007 ft 389 kts 197°
2026-05-07 11:54 40.86145 3.35604 34995 ft 389 kts 197°
2026-05-07 11:55 40.80857 3.34220 34999 ft 386 kts 197°
2026-05-07 11:55 40.75604 3.32841 35002 ft 386 kts 197°
2026-05-07 11:56 40.70333 3.31464 34999 ft 386 kts 197°
2026-05-07 11:56 40.65054 3.30093 34997 ft 386 kts 197°
2026-05-07 11:57 40.59782 3.28723 34997 ft 386 kts 197°
2026-05-07 11:57 40.54502 3.27351 34995 ft 386 kts 197°
2026-05-07 11:58 40.49228 3.25984 34994 ft 386 kts 197°
2026-05-07 11:58 40.43984 3.24627 34993 ft 386 kts 197°
2026-05-07 11:59 40.38731 3.23267 34979 ft 384 kts 197°
2026-05-07 11:59 40.33496 3.21913 34985 ft 384 kts 197°
2026-05-07 12:00 40.28256 3.20565 34986 ft 383 kts 197°
2026-05-07 12:00 40.23024 3.19216 34983 ft 383 kts 197°
2026-05-07 12:01 40.17795 3.17874 34972 ft 382 kts 197°
2026-05-07 12:01 40.12582 3.16534 34977 ft 382 kts 197°
2026-05-07 12:02 40.07398 3.15207 34976 ft 382 kts 197°
2026-05-07 12:02 40.02183 3.13871 34976 ft 382 kts 197°
2026-05-07 12:03 39.96965 3.12535 34964 ft 381 kts 197°
2026-05-07 12:03 39.91893 3.10775 34975 ft 374 kts 207°
2026-05-07 12:04 39.87335 3.07586 34978 ft 371 kts 212°
2026-05-07 12:04 39.82869 3.04283 34752 ft 365 kts 212°
2026-05-07 12:04 39.80654 3.02665 34530 ft 365 kts 212°
2026-05-07 12:05 39.78475 3.01075 34247 ft 361 kts 212°
2026-05-07 12:05 39.76300 2.99492 33847 ft 356 kts 211°
2026-05-07 12:05 39.74154 2.97932 33416 ft 350 kts 211°
2026-05-07 12:05 39.72043 2.96401 32993 ft 345 kts 211°
2026-05-07 12:06 39.69958 2.94891 32605 ft 339 kts 211°
2026-05-07 12:06 39.67919 2.93414 32249 ft 333 kts 211°
2026-05-07 12:06 39.65906 2.91959 31853 ft 330 kts 211°
2026-05-07 12:06 39.63847 2.90468 31563 ft 345 kts 211°
2026-05-07 12:07 39.61737 2.88939 31254 ft 346 kts 211°
2026-05-07 12:07 39.59649 2.87433 30805 ft 341 kts 211°
2026-05-07 12:07 39.57589 2.85948 30358 ft 336 kts 211°
2026-05-07 12:07 39.55555 2.84484 29920 ft 333 kts 211°
2026-05-07 12:08 39.53539 2.83031 29436 ft 330 kts 211°
2026-05-07 12:08 39.51548 2.81600 29030 ft 325 kts 211°
2026-05-07 12:08 39.49581 2.80185 28652 ft 321 kts 211°
2026-05-07 12:08 39.47643 2.78792 28277 ft 317 kts 211°
2026-05-07 12:09 39.45743 2.77424 27926 ft 316 kts 211°
2026-05-07 12:09 39.43886 2.75916 27569 ft 314 kts 218°
2026-05-07 12:09 39.42285 2.73991 27210 ft 314 kts 227°
2026-05-07 12:09 39.40884 2.71797 26864 ft 317 kts 230°
2026-05-07 12:10 39.39525 2.69574 26493 ft 313 kts 230°
2026-05-07 12:10 39.38164 2.67367 26124 ft 313 kts 230°
2026-05-07 12:10 39.36800 2.65173 25759 ft 313 kts 230°
2026-05-07 12:10 39.35425 2.62990 25386 ft 313 kts 230°
2026-05-07 12:11 39.34047 2.60806 25014 ft 313 kts 230°
2026-05-07 12:11 39.32695 2.58663 24635 ft 312 kts 230°
2026-05-07 12:11 39.31322 2.56480 24248 ft 313 kts 229°
2026-05-07 12:11 39.29946 2.54298 23864 ft 313 kts 229°
2026-05-07 12:12 39.28571 2.52120 23487 ft 312 kts 229°
2026-05-07 12:12 39.27197 2.49946 23070 ft 311 kts 229°
2026-05-07 12:12 39.25829 2.47787 22677 ft 311 kts 229°
2026-05-07 12:12 39.24462 2.45629 22277 ft 310 kts 229°
2026-05-07 12:13 39.23099 2.43480 21864 ft 309 kts 229°
2026-05-07 12:13 39.21738 2.41340 21476 ft 308 kts 229°
2026-05-07 12:13 39.20382 2.39206 21102 ft 307 kts 229°
2026-05-07 12:13 39.19030 2.37080 20735 ft 307 kts 229°
2026-05-07 12:14 39.17695 2.34982 20370 ft 306 kts 230°
2026-05-07 12:14 39.16345 2.32859 20012 ft 306 kts 230°
2026-05-07 12:14 39.15000 2.30746 19669 ft 305 kts 229°
2026-05-07 12:14 39.13652 2.28635 19349 ft 305 kts 230°
2026-05-07 12:15 39.12301 2.26516 19002 ft 305 kts 230°
2026-05-07 12:15 39.10955 2.24405 18661 ft 305 kts 230°
2026-05-07 12:15 39.09609 2.22298 18310 ft 304 kts 230°
2026-05-07 12:15 39.08266 2.20191 17945 ft 304 kts 230°
2026-05-07 12:16 39.06925 2.18086 17606 ft 303 kts 230°
2026-05-07 12:16 39.05588 2.15995 17263 ft 302 kts 230°
2026-05-07 12:16 39.04254 2.13910 16925 ft 302 kts 230°
2026-05-07 12:16 39.02920 2.11827 16587 ft 301 kts 230°
2026-05-07 12:17 39.01586 2.09751 16250 ft 300 kts 229°
2026-05-07 12:17 39.00261 2.07687 15927 ft 299 kts 229°
2026-05-07 12:17 38.98955 2.05656 15640 ft 298 kts 229°
2026-05-07 12:17 38.97625 2.03584 15349 ft 296 kts 229°
2026-05-07 12:18 38.96337 2.01575 15041 ft 295 kts 229°
2026-05-07 12:18 38.95029 1.99539 14725 ft 294 kts 229°
2026-05-07 12:18 38.93721 1.97511 14401 ft 294 kts 228°
2026-05-07 12:18 38.92411 1.95480 14088 ft 294 kts 228°
2026-05-07 12:19 38.91550 1.94138 13879 ft 294 kts 229°
2026-05-07 12:19 38.90498 1.91885 13553 ft 297 kts 247°
2026-05-07 12:19 38.89915 1.89336 13241 ft 297 kts 253°
2026-05-07 12:19 38.89417 1.86768 12926 ft 296 kts 253°
2026-05-07 12:20 38.88918 1.84211 12619 ft 295 kts 253°
2026-05-07 12:20 38.88410 1.81670 12316 ft 293 kts 253°
2026-05-07 12:20 38.87897 1.79137 11997 ft 292 kts 253°
2026-05-07 12:20 38.87379 1.76606 11462 ft 296 kts 253°
2026-05-07 12:21 38.86847 1.74009 10802 ft 304 kts 253°
2026-05-07 12:21 38.86306 1.71373 10353 ft 303 kts 253°
2026-05-07 12:21 38.85777 1.68797 9992 ft 296 kts 252°
2026-05-07 12:21 38.85252 1.66257 9530 ft 293 kts 253°
2026-05-07 12:22 38.84731 1.63735 9007 ft 291 kts 253°
2026-05-07 12:22 38.84212 1.61232 8485 ft 289 kts 253°
2026-05-07 12:22 38.83701 1.58774 7963 ft 289 kts 253°
2026-05-07 12:22 38.83157 1.56298 7454 ft 288 kts 252°
2026-05-07 12:23 38.82603 1.53826 6955 ft 287 kts 252°
2026-05-07 12:23 38.82054 1.51369 6472 ft 286 kts 253°
2026-05-07 12:23 38.81511 1.48926 5981 ft 284 kts 253°
2026-05-07 12:23 38.80971 1.46496 5522 ft 281 kts 253°
2026-05-07 12:24 38.80436 1.44093 5018 ft 280 kts 252°
2026-05-07 12:24 38.79716 1.41789 4514 ft 278 kts 242°
2026-05-07 12:24 38.78818 1.39602 3996 ft 277 kts 240°
2026-05-07 12:24 38.77906 1.37434 3570 ft 275 kts 240°
2026-05-07 12:25 38.77015 1.35307 3380 ft 267 kts 241°
2026-05-07 12:25 38.76155 1.33244 3231 ft 257 kts 241°
2026-05-07 12:25 38.75329 1.31259 3105 ft 248 kts 241°
2026-05-07 12:25 38.74523 1.29322 2966 ft 245 kts 241°
2026-05-07 12:26 38.73735 1.27426 2954 ft 244 kts 241°
2026-05-07 12:26 38.72934 1.25508 2967 ft 243 kts 241°
2026-05-07 12:26 38.72136 1.23600 2980 ft 244 kts 240°
2026-05-07 12:26 38.71336 1.21689 2975 ft 242 kts 242°
2026-05-07 12:27 38.70902 1.19617 2994 ft 244 kts 266°
2026-05-07 12:27 38.71051 1.17473 2987 ft 244 kts 289°
2026-05-07 12:27 38.71914 1.15639 2995 ft 240 kts 318°
2026-05-07 12:27 38.73300 1.14538 2991 ft 233 kts 345°
2026-05-07 12:28 38.74818 1.14323 2970 ft 210 kts
2026-05-07 12:28 38.76229 1.14640 2981 ft 205 kts 15°
2026-05-07 12:28 38.77604 1.15126 2977 ft 204 kts 28°
2026-05-07 12:28 38.78657 1.16273 2971 ft 199 kts 56°
2026-05-07 12:29 38.79350 1.17806 2974 ft 193 kts 65°
2026-05-07 12:29 38.79880 1.19246 2903 ft 168 kts 66°
2026-05-07 12:29 38.80362 1.20539 2698 ft 154 kts 65°
2026-05-07 12:29 38.80839 1.21731 2483 ft 149 kts 64°
2026-05-07 12:30 38.81316 1.22895 2278 ft 149 kts 64°
2026-05-07 12:30 38.81806 1.24080 2085 ft 149 kts 63°
2026-05-07 12:30 38.82288 1.25245 1890 ft 147 kts 64°
2026-05-07 12:30 38.82767 1.26402 1725 ft 140 kts 64°
2026-05-07 12:31 38.83195 1.27438 1535 ft 128 kts 64°
2026-05-07 12:31 38.83614 1.28450 1346 ft 129 kts 64°
2026-05-07 12:31 38.84028 1.29456 1178 ft 128 kts 63°
2026-05-07 12:31 38.84439 1.30444 1000 ft 126 kts 62°
2026-05-07 12:32 38.84859 1.31446 822 ft 128 kts 64°
2026-05-07 12:32 38.85275 1.32469 639 ft 131 kts 63°
2026-05-07 12:32 38.85710 1.33481 502 ft 129 kts 64°
2026-05-07 12:32 38.86123 1.34497 292 ft 129 kts 64°
2026-05-07 12:33 38.86945 1.36487 15 ft 123 kts 64°
2026-05-07 12:33 38.87274 1.37285 16 ft 73 kts 62°
2026-05-07 12:33 38.87425 1.37650 14 ft 32 kts 63°
2026-05-07 12:34 38.87544 1.37825 17 ft 23 kts 36°
2026-05-07 12:34 38.87647 1.37910 15 ft 11 kts 28°
2026-05-07 12:34 38.87695 1.37884 14 ft 8 kts 281°
2026-05-07 12:34 38.87678 1.37810 14 ft 10 kts 244°
2026-05-07 12:35 38.87643 1.37723 14 ft 12 kts 240°
2026-05-07 12:35 38.87598 1.37623 14 ft 14 kts 241°